| time (UTC) | temp F | wind direction | speed knots | gust knots | rain 1hr in | rain 24hr in | rain mn in | humidity % | barometer mb |
| 20260505230516 | 60 | 158 | 3.5 | 10.4 | 0.00 | 0.00 | 0.00 | 71 | 1005.3 |
| 20260505225536 | 59 | 158 | 3.5 | 6.1 | 0.00 | 0.00 | 0.00 | 72 | 1005.3 |
| 20260505224515 | 59 | 135 | 2.6 | 6.1 | 0.00 | 0.00 | 0.00 | 73 | 1005.1 |
| 20260505223516 | 59 | 158 | 2.6 | 3.5 | 0.00 | 0.00 | 0.00 | 73 | 1004.9 |
| 20260505222515 | 59 | 158 | 2.6 | 5.2 | 0.00 | 0.00 | 0.00 | 73 | 1004.8 |
| 20260505221516 | 59 | 158 | 5.2 | 11.3 | 0.00 | 0.00 | 0.00 | 72 | 1004.6 |
| 20260505220515 | 59 | 158 | 4.3 | 7.8 | 0.00 | 0.00 | 0.00 | 71 | 1004.6 |
| 20260505215516 | 60 | 158 | 5.2 | 10.4 | 0.00 | 0.00 | 0.00 | 71 | 1004.6 |
| 20260505214516 | 60 | 158 | 5.2 | 10.4 | 0.00 | 0.00 | 0.00 | 69 | 1004.8 |
| 20260505213535 | 61 | 180 | 5.2 | 13.9 | 0.00 | 0.00 | 0.00 | 68 | 1004.7 |
| 20260505212516 | 62 | 158 | 5.2 | 10.4 | 0.00 | 0.00 | 0.00 | 67 | 1004.8 |
| 20260505211515 | 62 | 158 | 4.3 | 12.2 | 0.00 | 0.00 | 0.00 | 67 | 1004.9 |
| 20260505210518 | 63 | 158 | 4.3 | 10.4 | 0.00 | 0.00 | 0.00 | 65 | 1004.9 |
| 20260505205518 | 64 | 203 | 4.3 | 9.6 | 0.00 | 0.00 | 0.00 | 65 | 1004.8 |
| 20260505204518 | 64 | 158 | 4.3 | 10.4 | 0.00 | 0.00 | 0.00 | 65 | 1004.7 |
| 20260505203518 | 65 | 180 | 3.5 | 9.6 | 0.00 | 0.00 | 0.00 | 64 | 1004.7 |
| 20260505202517 | 65 | 180 | 4.3 | 8.7 | 0.00 | 0.00 | 0.00 | 63 | 1004.7 |
| 20260505201517 | 66 | 203 | 4.3 | 11.3 | 0.00 | 0.00 | 0.00 | 63 | 1004.8 |
| 20260505200518 | 66 | 158 | 4.3 | 7.8 | 0.00 | 0.00 | 0.00 | 63 | 1004.9 |
| 20260505195517 | 66 | 135 | 5.2 | 11.3 | 0.00 | 0.00 | 0.00 | 63 | 1004.8 |
| 20260505194537 | 66 | 158 | 4.3 | 10.4 | 0.00 | 0.00 | 0.00 | 62 | 1005.2 |
| 20260505193517 | 67 | 158 | 5.2 | 10.4 | 0.00 | 0.00 | 0.00 | 62 | 1005.4 |
| 20260505192537 | 68 | 158 | 3.5 | 9.6 | 0.00 | 0.00 | 0.00 | 62 | 1005.6 |
| 20260505191517 | 66 | 180 | 5.2 | 9.6 | 0.00 | 0.00 | 0.00 | 63 | 1005.7 |
| 20260505190539 | 66 | 180 | 4.3 | 11.3 | 0.00 | 0.00 | 0.00 | 63 | 1005.7 |
| 20260505185518 | 66 | 180 | 3.5 | 9.6 | 0.00 | 0.00 | 0.00 | 63 | 1005.9 |
| 20260505184537 | 67 | 158 | 5.2 | 9.6 | 0.00 | 0.00 | 0.00 | 62 | 1006.1 |
| 20260505183517 | 67 | 158 | 5.2 | 11.3 | 0.00 | 0.00 | 0.00 | 60 | 1006.1 |
| 20260505182517 | 69 | 158 | 3.5 | 9.6 | 0.00 | 0.00 | 0.00 | 59 | 1006.0 |
| 20260505181517 | 68 | 158 | 4.3 | 8.7 | 0.00 | 0.00 | 0.00 | 59 | 1005.9 |
| 20260505180517 | 70 | 180 | 4.3 | 9.6 | 0.00 | 0.00 | 0.00 | 57 | 1005.9 |
| 20260505175517 | 69 | 158 | 3.5 | 5.2 | 0.00 | 0.00 | 0.00 | 58 | 1005.9 |
| 20260505174517 | 69 | 203 | 3.5 | 8.7 | 0.00 | 0.00 | 0.00 | 59 | 1006.4 |
| 20260505173517 | 68 | 203 | 4.3 | 8.7 | 0.00 | 0.00 | 0.00 | 58 | 1006.7 |
| 20260505172517 | 69 | 180 | 3.5 | 6.1 | 0.00 | 0.00 | 0.00 | 58 | 1006.8 |
| 20260505171518 | 69 | 158 | 3.5 | 8.7 | 0.00 | 0.00 | 0.00 | 57 | 1006.7 |
| 20260505170517 | 70 | 203 | 3.5 | 7.0 | 0.00 | 0.00 | 0.00 | 56 | 1007.1 |
| 20260505165517 | 69 | 180 | 3.5 | 6.1 | 0.00 | 0.00 | 0.00 | 59 | 1007.0 |
| 20260505164517 | 69 | 180 | 1.7 | 4.3 | 0.00 | 0.00 | 0.00 | 59 | 1007.2 |
| 20260505163537 | 67 | 180 | 2.6 | 6.1 | 0.00 | 0.00 | 0.00 | 63 | 1007.3 |
| 20260505162517 | 65 | 180 | 3.5 | 7.0 | 0.00 | 0.00 | 0.00 | 63 | 1007.6 |
| 20260505161517 | 65 | 158 | 3.5 | 6.1 | 0.00 | 0.00 | 0.00 | 64 | 1007.7 |
| 20260505160516 | 64 | 158 | 2.6 | 4.3 | 0.00 | 0.00 | 0.00 | 67 | 1007.8 |
| 20260505152516 | 61 | 180 | 2.6 | 4.3 | 0.00 | 0.00 | 0.00 | 71 | 1008.3 |
| 20260505151536 | 61 | 180 | 3.5 | 7.0 | 0.00 | 0.00 | 0.00 | 69 | 1008.2 |
| 20260505150516 | 62 | 158 | 2.6 | 6.1 | 0.00 | 0.00 | 0.00 | 67 | 1008.0 |
| 20260505140636 | 62 | 180 | 5.2 | 8.7 | 0.00 | 0.00 | 0.00 | 66 | 1008.4 |
| 20260505124516 | 59 | 203 | 1.7 | 5.2 | 0.00 | 0.00 | 0.00 | 69 | 1008.3 |
| 20260505123516 | 58 | 158 | 3.5 | 7.8 | 0.00 | 0.00 | 0.00 | 70 | 1008.3 |
| 20260505122516 | 57 | 203 | 2.6 | 4.3 | 0.00 | 0.00 | 0.00 | 70 | 1008.4 |
| 20260505121536 | 57 | 180 | 3.5 | 8.7 | 0.00 | 0.00 | 0.00 | 72 | 1008.7 |
| 20260505120516 | 56 | 158 | 2.6 | 5.2 | 0.00 | 0.00 | 0.00 | 72 | 1008.6 |
| 20260505115516 | 55 | 225 | 1.7 | 4.3 | 0.00 | 0.00 | 0.00 | 75 | 1008.7 |
| 20260505114516 | 54 | 158 | 2.6 | 4.3 | 0.00 | 0.00 | 0.00 | 76 | 1008.7 |
| 20260505113518 | 53 | 135 | 1.7 | 2.6 | 0.00 | 0.00 | 0.00 | 78 | 1008.8 |
| 20260505112557 | 52 | 158 | 1.7 | 4.3 | 0.00 | 0.00 | 0.00 | 79 | 1008.8 |
| 20260505111516 | 51 | 158 | 1.7 | 2.6 | 0.00 | 0.00 | 0.00 | 80 | 1008.9 |
| 20260505110516 | 51 | 135 | 1.7 | 3.5 | 0.00 | 0.00 | 0.00 | 81 | 1008.7 |
| 20260505101516 | 50 | 135 | 1.7 | 4.3 | 0.00 | 0.00 | 0.00 | 81 | 1008.6 |
| 20260505100516 | 50 | 158 | 1.7 | 3.5 | 0.00 | 0.00 | 0.00 | 81 | 1008.5 |
| 20260505095516 | 49 | 135 | 1.7 | 3.5 | 0.00 | 0.00 | 0.00 | 81 | 1008.5 |
| 20260505094516 | 49 | 135 | 1.7 | 2.6 | 0.00 | 0.00 | 0.00 | 81 | 1008.6 |
| 20260505093515 | 49 | 90 | 1.7 | 2.6 | 0.00 | 0.00 | 0.00 | 80 | 1008.5 |
| 20260505092517 | 49 | 113 | 0.9 | 2.6 | 0.00 | 0.00 | 0.00 | 80 | 1008.5 |
| 20260505091516 | 49 | 158 | 0.9 | 2.6 | 0.00 | 0.00 | 0.00 | 80 | 1008.5 |
| 20260505090515 | 50 | 135 | 1.7 | 3.5 | 0.00 | 0.00 | 0.00 | 79 | 1008.6 |
| 20260505085515 | 50 | 180 | 0.9 | 2.6 | 0.00 | 0.00 | 0.00 | 79 | 1008.7 |
| 20260505084515 | 50 | 180 | 0.9 | 1.7 | 0.00 | 0.00 | 0.00 | 79 | 1008.6 |
| 20260505083516 | 50 | 180 | 0.9 | 2.6 | 0.00 | 0.00 | 0.00 | 79 | 1008.7 |
| 20260505082517 | 50 | 180 | 1.7 | 3.5 | 0.00 | 0.00 | 0.00 | 79 | 1008.7 |
| 20260505081517 | 50 | 158 | 1.7 | 3.5 | 0.00 | 0.00 | 0.00 | 79 | 1008.7 |
| 20260505080517 | 51 | 158 | 1.7 | 2.6 | 0.00 | 0.00 | 0.00 | 78 | 1008.7 |
| 20260505075517 | 51 | 135 | 1.7 | 2.6 | 0.00 | 0.00 | 0.00 | 77 | 1008.6 |
| 20260505074517 | 51 | 158 | 1.7 | 3.5 | 0.00 | 0.00 | 0.00 | 77 | 1008.7 |
| 20260505073517 | 51 | 158 | 1.7 | 2.6 | 0.00 | 0.00 | 0.00 | 76 | 1008.6 |
| 20260505072517 | 51 | 158 | 1.7 | 4.3 | 0.00 | 0.00 | 0.00 | 76 | 1008.7 |
| 20260505071518 | 51 | 158 | 0.9 | 2.6 | 0.00 | 0.00 | 0.00 | 77 | 1008.6 |
| 20260505070517 | 51 | 135 | 0.9 | 1.7 | 0.00 | 0.00 | 0.00 | 76 | 1008.7 |
| 20260505065517 | 51 | 158 | 0.9 | 2.6 | 0.00 | 0.00 | 0.00 | 76 | 1008.6 |
| 20260505064537 | 52 | 158 | 0.9 | 3.5 | 0.00 | 0.00 | 0.00 | 75 | 1008.4 |
| 20260505063517 | 52 | 180 | 0.9 | 3.5 | 0.00 | 0.00 | 0.00 | 74 | 1008.4 |
| 20260505062517 | 52 | 180 | 1.7 | 2.6 | 0.00 | 0.00 | 0.00 | 73 | 1008.5 |
| 20260505061517 | 53 | 180 | 1.7 | 3.5 | 0.00 | 0.00 | 0.00 | 73 | 1008.5 |
| 20260505060517 | 53 | 180 | 0.9 | 2.6 | 0.00 | 0.00 | 0.00 | 72 | 1008.5 |
| 20260505055517 | 53 | 158 | 0.9 | 2.6 | 0.00 | 0.00 | 0.00 | 72 | 1008.4 |
| 20260505054517 | 53 | 158 | 1.7 | 2.6 | 0.00 | 0.00 | 0.00 | 72 | 1008.4 |
| 20260505053537 | 54 | 158 | 1.7 | 3.5 | 0.00 | 0.00 | 0.00 | 70 | 1008.3 |
| 20260505052517 | 55 | 180 | 1.7 | 3.5 | 0.00 | 0.00 | 0.00 | 68 | 1008.3 |
| 20260505051517 | 55 | 180 | 1.7 | 3.5 | 0.00 | 0.00 | 0.00 | 67 | 1008.2 |
| 20260505050517 | 56 | 203 | 1.7 | 3.5 | 0.00 | 0.00 | 0.00 | 67 | 1008.3 |
| 20260505041516 | 56 | 180 | 1.7 | 3.5 | 0.00 | 0.00 | 0.00 | 67 | 1008.0 |
| 20260505040537 | 55 | 180 | 1.7 | 5.2 | 0.00 | 0.00 | 0.00 | 68 | 1007.8 |
| 20260505035516 | 54 | 180 | 1.7 | 3.5 | 0.00 | 0.00 | 0.00 | 70 | 1007.7 |
| 20260505034516 | 52 | 203 | 1.7 | 6.1 | 0.00 | 0.00 | 0.00 | 74 | 1007.7 |
| 20260505033557 | 52 | 180 | 1.7 | 4.3 | 0.00 | 0.00 | 0.00 | 75 | 1007.7 |
| 20260505032517 | 51 | 180 | 1.7 | 3.5 | 0.00 | 0.00 | 0.00 | 78 | 1007.6 |
| 20260505031538 | 50 | 158 | 1.7 | 3.5 | 0.00 | 0.00 | 0.00 | 79 | 1007.7 |
| 20260505030516 | 49 | 180 | 1.7 | 3.5 | 0.00 | 0.00 | 0.00 | 80 | 1007.6 |
| 20260505025516 | 49 | 158 | 1.7 | 3.5 | 0.00 | 0.00 | 0.00 | 80 | 1007.7 |
| 20260505024516 | 49 | 158 | 0.9 | 2.6 | 0.00 | 0.00 | 0.00 | 80 | 1007.8 |
| 20260505023516 | 49 | 158 | 0.9 | 3.5 | 0.00 | 0.00 | 0.00 | 80 | 1007.7 |
| 20260505022516 | 48 | 113 | 0.9 | 1.7 | 0.00 | 0.00 | 0.00 | 81 | 1007.6 |
| 20260505021516 | 48 | 113 | 0.9 | 1.7 | 0.00 | 0.00 | 0.00 | 81 | 1007.6 |
| 20260505020516 | 48 | 113 | 0.9 | 1.7 | 0.00 | 0.00 | 0.00 | 80 | 1007.6 |
| 20260505015517 | 48 | 113 | 0.9 | 1.7 | 0.00 | 0.00 | 0.00 | 80 | 1007.6 |
| 20260505014516 | 48 | 113 | 0.9 | 2.6 | 0.00 | 0.00 | 0.00 | 80 | 1007.5 |
| 20260505013516 | 49 | 113 | 1.7 | 2.6 | 0.00 | 0.00 | 0.00 | 79 | 1007.3 |
| 20260505012516 | 49 | 113 | 0.9 | 1.7 | 0.00 | 0.00 | 0.00 | 78 | 1007.2 |
| 20260505011516 | 50 | 113 | 0.9 | 1.7 | 0.00 | 0.00 | 0.00 | 77 | 1007.3 |
| 20260505010516 | 50 | 113 | 0.9 | 1.7 | 0.00 | 0.00 | 0.00 | 75 | 1007.1 |
| 20260505005516 | 51 | 113 | 0.9 | 1.7 | 0.00 | 0.00 | 0.00 | 72 | 1007.0 |
| 20260505004536 | 52 | 135 | 1.7 | 3.5 | 0.00 | 0.00 | 0.00 | 71 | 1007.0 |
| 20260505003516 | 53 | 113 | 1.7 | 2.6 | 0.00 | 0.00 | 0.00 | 69 | 1006.7 |
| 20260505002516 | 54 | 113 | 2.6 | 4.3 | 0.00 | 0.00 | 0.00 | 67 | 1006.4 |
| 20260505001516 | 55 | 113 | 2.6 | 3.5 | 0.00 | 0.00 | 0.00 | 65 | 1006.2 |
| 20260505000517 | 56 | 113 | 2.6 | 3.5 | 0.00 | 0.00 | 0.00 | 64 | 1006.2 |
| 20260504235516 | 56 | 113 | 2.6 | 3.5 | 0.00 | 0.00 | 0.00 | 63 | 1006.2 |
| 20260504234516 | 57 | 113 | 1.7 | 3.5 | 0.00 | 0.00 | 0.00 | 63 | 1006.2 |
| 20260504233516 | 58 | 113 | 1.7 | 3.5 | 0.00 | 0.00 | 0.00 | 63 | 1006.0 |
| 20260504232516 | 59 | 135 | 1.7 | 3.5 | 0.00 | 0.00 | 0.00 | 62 | 1005.9 |
| 20260504231516 | 60 | 135 | 2.6 | 5.2 | 0.00 | 0.00 | 0.00 | 61 | 1005.7 |